Regional Weather Roundup
Issued by NWS

Home | Current Version | Previous Version | Text Only | Print | Product List | Glossary On
Versions: 1 2 3 4 5 6 7 8 9 10 11 12 13 14 15 16 17 18 19 20 21 22 23 24 25 26 27 28 29 30 31 32 33 34 35 36 37 38 39 40 41 42 43 44 45 46 47 48 49 50
000
ASUS45 KCYS 061110
RWRWY

WYOMING REGIONAL WEATHER ROUNDUP
NATIONAL WEATHER SERVICE CHEYENNE WY
400 AM MST FRI DEC 06 2019

NOTE:  "FAIR" INDICATES FEW OR NO CLOUDS BELOW 12,000 FEET
WITH NO SIGNIFICANT WEATHER AND/OR OBSTRUCTIONS TO VISIBILITY.

WYZ001-061200-
...YELLOWSTONE NATIONAL PARK...

CITY           SKY/WX    TMP DP  RH WIND       PRES   REMARKS
LK YELLOWSTONE   N/A     24  21  88 W3        30.24S
W YELLOWSTONE  NOT AVBL

$$
WYZ002>013-054>058-071-098>099-061200-
...NORTHERN WYOMING...

CITY           SKY/WX    TMP DP  RH WIND       PRES   REMARKS
JACKSON        NOT AVBL
CODY           MOCLDY    40  21  46 W12G22    30.15F WCI  33
GREYBULL       MOCLDY    15  12  88 CALM      30.20S
WORLAND        MOCLDY    13  11  92 SE5       30.19F WCI   5
SHERIDAN       PTCLDY    22  18  85 S3        30.10F
BUFFALO        PTCLDY    32  18  56 CALM      30.10F
GILLETTE       PTCLDY    27  22  81 SE12      30.12F WCI  17
HULETT         FAIR      30  27  86 MISG      30.13F
NEWCASTLE      CLOUDY    28  28 100 MISG      30.20F

$$
WYZ014>020-022>026-101>103-061200-
...CENTRAL WYOMING...

CITY           SKY/WX    TMP DP  RH WIND       PRES   REMARKS
BIG PINEY      MOCLDY    16  13  88 N5        30.27S WCI   9
PINEDALE       FOG       10   9  92 CALM      30.27S VSB 3/4
DUBOIS         MOCLDY    28  19  69 W14       30.19S WCI  17
LANDER         MOCLDY    16  15  96 NW3       30.19S
RIVERTON       CLOUDY    11  10  96 S5        30.20S WCI   3
CASPER         PTCLDY    29  24  82 SW17      30.15F WCI  17
DOUGLAS        CLEAR     15  11  83 CALM      30.18F

$$
WYZ021-027>030-104>119-061200-
...SOUTHERN WYOMING...

CITY           SKY/WX    TMP DP  RH WIND       PRES   REMARKS
EVANSTON       CLOUDY    30  27  88 CALM      30.26F
KEMMERER       CLOUDY    30  28  93 W8        30.26S WCI  23
FORT BRIDGER   NOT AVBL
ROCK SPRINGS   CLOUDY    28  26  92 SW8       30.27S WCI  20
DIXON          CLOUDY    32  30  92 S6        30.30S WCI  27
RAWLINS        MOCLDY    33  28  81 W17       30.22S WCI  22
SARATOGA       CLOUDY    27  27 100 CALM      30.26R
LARAMIE        MOCLDY    20  16  84 SW10      30.19F WCI   9
CHEYENNE       MOCLDY    27  22  81 SW3       30.20F
TORRINGTON     FOG       24  23  96 E5        30.21F VSB 1/4 WCI  18
PINE BLUFFS    FOG       27  27 100 SW8       30.23S VSB 1   WCI  18

$$



USA.gov is the U.S. government's official web portal to all federal, state and local government web resources and services.